TimeEDT,TemperatureF,Dew PointF,Humidity,Sea Level PressureIn,VisibilityMPH,Wind Direction,Wind SpeedMPH,Gust SpeedMPH,PrecipitationIn,Events,Conditions,WindDirDegrees,DateUTC
12:55 AM,64.4,64.4,100,30.10,0.2,Calm,Calm,-,N/A,Fog,Fog,0,2013-05-21 04:55:00
1:15 AM,62.6,62.6,100,30.10,0.8,NNE,3.5,-,N/A,,Overcast,30,2013-05-21 05:15:00
1:35 AM,62.6,62.6,100,30.09,7.0,Calm,Calm,-,N/A,,Mostly Cloudy,0,2013-05-21 05:35:00
1:55 AM,62.6,62.6,100,30.09,5.0,NNE,3.5,-,N/A,,Scattered Clouds,20,2013-05-21 05:55:00
1:59 AM,64.4,62.6,94,30.09,5.0,Calm,Calm,-,N/A,,Scattered Clouds,0,2013-05-21 05:59:00
2:15 AM,62.6,62.6,100,30.08,5.0,Calm,Calm,-,N/A,,Mostly Cloudy,0,2013-05-21 06:15:00
2:35 AM,62.6,62.6,100,30.08,7.0,Calm,Calm,-,N/A,,Overcast,0,2013-05-21 06:35:00
2:55 AM,62.6,62.6,100,30.08,7.0,North,3.5,-,N/A,,Overcast,350,2013-05-21 06:55:00
3:15 AM,62.6,62.6,100,30.08,7.0,North,3.5,-,N/A,,Overcast,360,2013-05-21 07:15:00
3:35 AM,62.6,62.6,100,30.08,7.0,Calm,Calm,-,N/A,,Overcast,0,2013-05-21 07:35:00
3:55 AM,62.6,62.6,100,30.08,4.0,Calm,Calm,-,N/A,,Mostly Cloudy,0,2013-05-21 07:55:00
4:15 AM,62.6,62.6,100,30.08,2.0,Calm,Calm,-,N/A,,Scattered Clouds,0,2013-05-21 08:15:00
4:35 AM,60.8,60.8,100,30.09,0.5,Calm,Calm,-,N/A,Fog,Fog,0,2013-05-21 08:35:00
4:55 AM,60.8,60.8,100,30.09,0.2,Calm,Calm,-,N/A,Fog,Fog,0,2013-05-21 08:55:00
5:15 AM,59.0,59.0,100,30.09,0.2,Calm,Calm,-,N/A,Fog,Fog,0,2013-05-21 09:15:00
5:35 AM,60.8,60.8,100,30.10,0.5,Calm,Calm,-,N/A,Fog,Fog,0,2013-05-21 09:35:00
5:55 AM,60.8,60.8,100,30.10,3.0,Calm,Calm,-,N/A,,Overcast,0,2013-05-21 09:55:00
6:15 AM,59.0,59.0,100,30.10,2.5,Calm,Calm,-,N/A,,Overcast,0,2013-05-21 10:15:00
6:35 AM,60.8,60.8,100,30.11,0.2,Calm,Calm,-,N/A,Fog,Fog,0,2013-05-21 10:35:00
6:55 AM,60.8,60.8,100,30.11,0.8,Calm,Calm,-,N/A,,Overcast,0,2013-05-21 10:55:00
7:15 AM,60.8,60.8,100,30.11,2.5,Calm,Calm,-,N/A,,Mostly Cloudy,0,2013-05-21 11:15:00
7:35 AM,60.8,60.8,100,30.12,0.2,Calm,Calm,-,N/A,Fog,Fog,0,2013-05-21 11:35:00
7:55 AM,62.6,62.6,100,30.12,0.2,Calm,Calm,-,N/A,Fog,Fog,0,2013-05-21 11:55:00
8:15 AM,62.6,62.6,100,30.12,0.2,Calm,Calm,-,N/A,Fog,Fog,0,2013-05-21 12:15:00
8:35 AM,62.6,62.6,100,30.12,0.2,Calm,Calm,-,N/A,Fog,Fog,0,2013-05-21 12:35:00
8:55 AM,62.6,62.6,100,30.13,0.2,Calm,Calm,-,N/A,Fog,Fog,0,2013-05-21 12:55:00
9:15 AM,64.4,64.4,100,30.14,2.5,Calm,Calm,-,N/A,,Overcast,0,2013-05-21 13:15:00
9:35 AM,64.4,64.4,100,30.14,2.5,Calm,Calm,-,N/A,,Overcast,0,2013-05-21 13:35:00
9:55 AM,64.4,64.4,100,30.13,3.0,Calm,Calm,-,N/A,,Overcast,0,2013-05-21 13:55:00
10:15 AM,66.2,66.2,100,30.13,4.0,Calm,Calm,-,N/A,,Overcast,0,2013-05-21 14:15:00
10:35 AM,68.0,66.2,94,30.13,5.0,SSW,3.5,-,N/A,,Overcast,210,2013-05-21 14:35:00
10:55 AM,69.8,66.2,88,30.12,7.0,Calm,Calm,-,N/A,,Overcast,0,2013-05-21 14:55:00
11:15 AM,71.6,68.0,88,30.12,10.0,SSE,3.5,-,N/A,,Scattered Clouds,160,2013-05-21 15:15:00
11:35 AM,73.4,68.0,83,30.12,10.0,Calm,Calm,-,N/A,,Clear,0,2013-05-21 15:35:00
12:15 PM,77.0,68.0,74,30.11,10.0,SSE,3.5,-,N/A,,Scattered Clouds,160,2013-05-21 16:15:00
12:35 PM,78.8,66.2,65,30.11,10.0,SE,4.6,-,N/A,,Scattered Clouds,140,2013-05-21 16:35:00
12:55 PM,80.6,68.0,65,30.10,10.0,Calm,Calm,-,N/A,,Clear,0,2013-05-21 16:55:00
1:15 PM,80.6,64.4,58,30.10,10.0,Calm,Calm,-,N/A,,Clear,0,2013-05-21 17:15:00
1:55 PM,82.4,64.4,54,30.08,10.0,Calm,Calm,-,N/A,,Clear,0,2013-05-21 17:55:00
2:15 PM,82.4,64.4,54,30.07,10.0,Calm,Calm,-,N/A,,Clear,0,2013-05-21 18:15:00
2:35 PM,82.4,64.4,54,30.06,10.0,Calm,Calm,-,N/A,,Clear,0,2013-05-21 18:35:00
2:55 PM,82.4,64.4,54,30.05,10.0,SSE,4.6,-,N/A,,Scattered Clouds,160,2013-05-21 18:55:00
3:15 PM,86.0,66.2,51,30.04,10.0,Calm,Calm,-,N/A,,Scattered Clouds,0,2013-05-21 19:15:00
3:35 PM,82.4,62.6,51,30.04,10.0,Calm,Calm,-,N/A,,Mostly Cloudy,0,2013-05-21 19:35:00
3:55 PM,82.4,64.4,54,30.03,10.0,SE,4.6,-,N/A,,Mostly Cloudy,140,2013-05-21 19:55:00
4:15 PM,84.2,64.4,51,30.02,10.0,Calm,Calm,-,N/A,,Scattered Clouds,0,2013-05-21 20:15:00
4:35 PM,82.4,64.4,54,30.02,10.0,SSE,6.9,-,N/A,,Scattered Clouds,160,2013-05-21 20:35:00
4:55 PM,82.4,64.4,54,30.01,10.0,Calm,Calm,-,N/A,,Scattered Clouds,0,2013-05-21 20:55:00
5:15 PM,82.4,66.2,58,30.01,10.0,South,5.8,-,N/A,,Clear,190,2013-05-21 21:15:00
5:35 PM,80.6,66.2,61,30.02,10.0,South,6.9,-,N/A,,Clear,190,2013-05-21 21:35:00
6:15 PM,78.8,66.2,65,30.01,10.0,South,5.8,-,N/A,,Scattered Clouds,170,2013-05-21 22:15:00
6:35 PM,78.8,64.4,61,30.00,10.0,SE,4.6,-,N/A,,Mostly Cloudy,140,2013-05-21 22:35:00
6:55 PM,78.8,64.4,61,30.01,10.0,SE,3.5,-,N/A,,Mostly Cloudy,140,2013-05-21 22:55:00
7:15 PM,77.0,66.2,69,30.01,10.0,SE,6.9,-,N/A,,Scattered Clouds,140,2013-05-21 23:15:00
7:35 PM,77.0,66.2,69,30.01,10.0,SE,5.8,-,N/A,,Scattered Clouds,140,2013-05-21 23:35:00
7:55 PM,75.2,68.0,78,30.03,10.0,South,5.8,-,N/A,Thunderstorm,Mostly Cloudy,190,2013-05-21 23:55:00
8:15 PM,75.2,66.2,73,30.03,10.0,South,4.6,-,N/A,,Mostly Cloudy,180,2013-05-22 00:15:00
8:35 PM,73.4,66.2,78,30.03,10.0,SSW,4.6,-,N/A,Thunderstorm,Scattered Clouds,200,2013-05-22 00:35:00
8:55 PM,73.4,64.4,73,30.03,10.0,South,6.9,-,N/A,,Clear,190,2013-05-22 00:55:00
9:15 PM,73.4,64.4,73,30.04,10.0,SSW,6.9,-,N/A,,Scattered Clouds,200,2013-05-22 01:15:00
9:35 PM,71.6,64.4,78,30.04,10.0,Calm,Calm,-,N/A,,Mostly Cloudy,0,2013-05-22 01:35:00
9:55 PM,71.6,64.4,78,30.05,10.0,Calm,Calm,-,N/A,,Scattered Clouds,0,2013-05-22 01:55:00
10:15 PM,69.8,64.4,83,30.06,10.0,Calm,Calm,-,N/A,,Clear,0,2013-05-22 02:15:00
10:35 PM,69.8,64.4,83,30.07,10.0,Calm,Calm,-,N/A,,Scattered Clouds,0,2013-05-22 02:35:00
10:55 PM,71.6,64.4,78,30.07,10.0,Calm,Calm,-,N/A,,Scattered Clouds,0,2013-05-22 02:55:00
11:15 PM,71.6,66.2,83,30.07,10.0,Calm,Calm,-,N/A,,Mostly Cloudy,0,2013-05-22 03:15:00
11:35 PM,69.8,66.2,88,30.07,10.0,Calm,Calm,-,N/A,,Overcast,0,2013-05-22 03:35:00
11:55 PM,69.8,66.2,88,30.08,10.0,Calm,Calm,-,N/A,,Overcast,0,2013-05-22 03:55:00